User: anonymous   Login
Location: Unspecified
(0.0000°N, 0.0000°E)
Time: 22:28:45
(UTC+00:00)
Language:

USA 176 - Orbit

View from above orbital plane
View from above orbital plane
View from above satellite
View from above satellite

Ground track
Ground track

The orbit data is extracted from the following two-line orbital elements,

1 28158U 04004A   18078.43099537 0.00000000  00000-0  00000-0 0    09
2 28158   8.0790  44.4000 0001410 330.3680  29.1241  1.00410105    02
Epoch (UTC): 19 March 2018 10:20:38
Eccentricity: 0.0001410
inclination: 8.0790°
perigee height: 35741 km
apogee height: 35753 km
right ascension of ascending node: 44.4000°
argument of perigee: 330.3680°
revolutions per day: 1.00410105
mean anomaly at epoch: 29.1241°
orbit number at epoch: 0

The dashed part of the orbit path shows where the satellite is in the earth's shadow,  

DLR